Simultaneous Nadir Overpasses (SNOs) Predictions

Prediction of SNOs between METOP-B and NPP Satellite Orbit:

Table of predicted SNOs for the next 14.0 days since TLE Epoch: 12/28/2024
Index Date (METOP-B) Time (METOP-B) Lat,Lon (METOP-B) SZA (METOP-B ) Date (NPP) Time (NPP) Lat,Lon (NPP) SZA (NPP ) Distance(km) Time Diff (sec)
1 01/03/2025 22:33:35 74.45,-167.08 97.30 01/03/2025 22:32:29 74.48,-170.29 97.51 95.59 66
2 01/03/2025 23:24:19 -74.35, 0.01 82.79 01/03/2025 23:23:11 -74.36, -2.65 82.64 79.87 68
3 01/04/2025 00:15:03 74.15, 166.83 97.03 01/04/2025 00:13:52 74.14, 165.22 97.12 49.01 71
4 01/04/2025 01:05:47 -74.06, -26.07 83.06 01/04/2025 01:04:35 -74.07, -27.29 82.97 37.26 72
5 01/04/2025 01:56:31 73.85, 140.77 96.76 01/04/2025 01:55:17 73.90, 140.45 96.84 11.04 74
6 01/04/2025 02:47:14 -73.81, -52.00 83.28 01/04/2025 02:46:00 -73.83, -52.06 83.25 2.41 74
7 01/04/2025 03:37:54 73.80, 115.31 96.71 01/04/2025 03:36:45 73.80, 115.31 96.72 0.32 69
8 01/04/2025 04:28:36 -73.81, -77.34 83.29 01/04/2025 04:27:30 -73.83, -77.44 83.26 3.35 66
9 01/04/2025 05:19:16 73.80, 89.96 96.70 01/04/2025 05:18:15 73.80, 89.94 96.72 0.93 61
10 01/04/2025 06:09:58 -73.81,-102.69 83.30 01/04/2025 06:08:59 -73.78,-102.70 83.32 3.69 59
11 01/04/2025 07:00:38 73.80, 64.62 96.69 01/04/2025 06:59:45 73.80, 64.56 96.71 1.96 53
12 01/04/2025 07:51:21 -73.76,-128.15 83.35 01/04/2025 07:50:29 -73.78,-128.07 83.32 3.04 52
13 01/04/2025 08:42:00 73.80, 39.28 96.69 01/04/2025 08:41:15 73.80, 39.18 96.70 3.01 45
14 01/04/2025 09:32:43 -73.76,-153.49 83.36 01/04/2025 09:31:59 -73.78,-153.45 83.33 2.49 44
15 01/04/2025 10:23:23 73.75, 13.82 96.64 01/04/2025 10:22:44 73.75, 13.92 96.64 3.30 39
16 01/04/2025 11:14:05 -73.76,-178.83 83.36 01/04/2025 11:13:29 -73.78,-178.83 83.34 2.32 36
17 01/04/2025 12:04:45 73.75, -11.53 96.63 01/04/2025 12:04:14 73.75, -11.46 96.64 2.32 31
18 01/04/2025 12:55:27 -73.76, 155.82 83.37 01/04/2025 12:54:59 -73.78, 155.80 83.34 2.60 28
19 01/04/2025 13:46:07 73.75, -36.87 96.62 01/04/2025 13:45:44 73.76, -36.83 96.63 1.45 23
20 01/04/2025 14:36:49 -73.76, 130.48 83.38 01/04/2025 14:36:29 -73.78, 130.42 83.35 3.22 20
21 01/04/2025 15:27:29 73.75, -62.21 96.61 01/04/2025 15:27:14 73.76, -62.21 96.62 1.03 15
22 01/04/2025 16:18:11 -73.76, 105.14 83.39 01/04/2025 16:17:58 -73.73, 105.16 83.41 2.80 13
23 01/04/2025 17:08:51 73.75, -87.56 96.60 01/04/2025 17:08:44 73.76, -87.59 96.62 1.51 7
24 01/04/2025 17:59:33 -73.76, 79.79 83.40 01/04/2025 17:59:28 -73.73, 79.78 83.42 2.55 5
25 01/04/2025 18:50:13 73.75,-112.90 96.60 01/04/2025 18:50:14 73.76,-112.96 96.61 2.40 1
26 01/04/2025 19:40:55 -73.76, 54.45 83.40 01/04/2025 19:40:58 -73.74, 54.41 83.42 2.71 3
27 01/04/2025 20:31:35 73.75,-138.25 96.59 01/04/2025 20:31:44 73.76,-138.34 96.61 3.39 9
28 01/04/2025 21:22:17 -73.76, 29.10 83.41 01/04/2025 21:22:28 -73.74, 29.03 83.43 3.23 11
29 01/04/2025 22:12:57 73.74,-163.59 96.58 01/04/2025 22:13:13 73.71,-163.60 96.54 3.73 16
30 01/04/2025 23:03:40 -73.71, 3.65 83.46 01/04/2025 23:03:58 -73.74, 3.65 83.44 3.52 18
31 01/04/2025 23:54:20 73.69, 170.95 96.53 01/04/2025 23:54:43 73.71, 171.02 96.54 3.03 23
32 01/05/2025 00:45:02 -73.71, -21.70 83.47 01/05/2025 00:45:27 -73.69, -21.61 83.50 3.33 25
33 01/05/2025 01:35:42 73.69, 145.61 96.52 01/05/2025 01:36:13 73.71, 145.64 96.53 2.55 31
34 01/05/2025 02:26:24 -73.70, -47.04 83.48 01/05/2025 02:26:57 -73.69, -46.99 83.50 2.39 33
35 01/05/2025 03:17:04 73.69, 120.26 96.51 01/05/2025 03:17:43 73.71, 120.27 96.53 2.47 39
36 01/05/2025 04:07:46 -73.70, -72.39 83.49 01/05/2025 04:08:27 -73.69, -72.36 83.51 1.61 41
37 01/05/2025 04:58:26 73.69, 94.92 96.50 01/05/2025 04:59:13 73.72, 94.89 96.52 2.83 47
38 01/05/2025 05:49:08 -73.70, -97.73 83.49 01/05/2025 05:49:57 -73.69, -97.74 83.52 1.30 49
39 01/05/2025 06:39:48 73.69, 69.58 96.50 01/05/2025 06:40:42 73.67, 69.63 96.46 3.14 54
40 01/05/2025 07:30:30 -73.70,-123.07 83.50 01/05/2025 07:31:27 -73.69,-123.12 83.52 1.74 57
41 01/05/2025 08:21:10 73.69, 44.23 96.49 01/05/2025 08:22:12 73.67, 44.25 96.45 2.51 62
42 01/05/2025 09:11:52 -73.70,-148.42 83.51 01/05/2025 09:12:57 -73.69,-148.49 83.53 2.56 65
43 01/05/2025 10:02:32 73.69, 18.89 96.48 01/05/2025 10:03:42 73.67, 18.87 96.44 2.23 70
44 01/05/2025 10:53:14 -73.70,-173.76 83.52 01/05/2025 10:54:27 -73.70,-173.87 83.54 3.51 73
45 01/05/2025 11:43:57 73.54, -6.80 96.34 01/05/2025 11:45:10 73.57, -6.27 96.33 17.11 73
46 01/05/2025 12:34:41 -73.45, 160.33 83.74 01/05/2025 12:35:53 -73.50, 161.21 83.76 28.50 72
47 01/05/2025 13:25:25 73.23, -32.81 96.07 01/05/2025 13:26:34 73.27, -30.97 95.99 59.40 69
48 01/05/2025 14:16:09 -73.15, 134.32 84.01 01/05/2025 14:17:17 -73.20, 136.51 84.10 70.61 68



Historial Predications of SNOs between METOP-B and NPP
